Overview Statistics Trail Chart Weather Telemetry Raw packets
 

This is the latest recevied weather packets stored in our database for station/object DO9LL-1. If no packets are shown the sender has not sent any weather packets the latest 10 day(s).

<< 1 2 3 4 >>
Time Temp. Humidity Pressure Rain* Wind** Luminosity Snow
1788604646 18.89° C 72% 1018.7 hPa 0 mm - - -
1788604042 18.89° C 74% 1018.7 hPa 0 mm - - -
1788603439 18.33° C 75% 1018.7 hPa 0 mm - - -
1788602855 18.33° C 75% 1018.5 hPa 0 mm - - -
1788602253 18.33° C 76% 1018.3 hPa 0 mm - - -
1788601649 18.33° C 76% 1018.4 hPa 0 mm - - -
1788601045 18.33° C 75% 1018.3 hPa 0 mm - - -
1788600441 17.78° C 77% 1018.2 hPa 0 mm - - -
1788599837 17.78° C 77% 1018.2 hPa 0 mm - - -
1788599254 17.78° C 79% 1018.1 hPa 0 mm - - -
1788598651 17.78° C 78% 1018 hPa 0 mm - - -
1788598076 17.22° C 79% 1018 hPa 0 mm - - -
1788597443 17.78° C 79% 1017.8 hPa 0 mm - - -
1788596840 17.22° C 80% 1017.7 hPa 0 mm - - -
1788596237 17.22° C 81% 1017.6 hPa 0 mm - - -
1788595653 17.22° C 81% 1017.4 hPa 0 mm - - -
1788595050 16.67° C 82% 1017.4 hPa 0 mm - - -
1788594446 16.11° C 83% 1017.3 hPa 0 mm - - -
1788593842 16.11° C 84% 1017.3 hPa 0 mm - - -
1788593240 15.56° C 84% 1017.1 hPa 0 mm - - -
1788592655 15.56° C 85% 1017.1 hPa 0 mm - - -
1788592051 15° C 85% 1017 hPa 0 mm - - -
1788591447 15° C 85% 1017 hPa 0 mm - - -
1788590844 14.44° C 86% 1016.9 hPa 0 mm - - -
1788590240 14.44° C 87% 1016.9 hPa 0 mm - - -

* Rain latest hour (hover to see other rain measurements)
** Current wind speed in m/s (hover to see current wind gust speed)